Вернуться в каталог

STARLINK-4335

АктивенСвязьSSO
NORAD 53215·PAYLOAD·🇺🇸 United States

Запущен Jul 22, 2022 с Vandenberg Space Force Base

Loading…

Ближайшие Пролёты (ближайшие 24 часа)

TLE

СвежийSource: CelesTrak SupGP

Эпоха: Sep 14, 2026, 21:21 UTC

1 53215C 22084AC  26257.89006944 -.00019860  00000+0 -61664-3 0  2572
2 53215  97.2838 313.6478 0001506  92.3903 108.9551 15.33441264    18

Отслеживайте STARLINK-4335 в реальном времени с AllMySat

Download on the App Store